This is the latest recevied weather packets stored in our database for station/object KD4PMP. If no packets are shown the sender has not sent any weather packets the latest 10 day(s).
| Time | Temp. | Humidity | Pressure | Rain* | Wind** | Luminosity | Snow |
|---|---|---|---|---|---|---|---|
| 1777563002 | 15.56° C | 47% | 1016.2 hPa | 0 mm | - | - | - |
| 1777562402 | 15° C | 48% | 1016.4 hPa | 0 mm | - | - | - |
| 1777561801 | 15° C | 47% | 1016.3 hPa | 0 mm | - | - | - |
| 1777561201 | 15° C | 49% | 1016.2 hPa | 0 mm | - | - | - |
| 1777560601 | 15.56° C | 48% | 1016.2 hPa | 0 mm | - | - | - |
| 1777560001 | 15° C | 47% | 1016.2 hPa | 0 mm | - | - | - |
| 1777559400 | 15° C | 50% | 1016.5 hPa | 0 mm | - | - | - |
| 1777558800 | 14.44° C | 49% | 1016.5 hPa | 0 mm | - | - | - |
| 1777558199 | 14.44° C | 50% | 1016.5 hPa | 0 mm | - | - | - |
| 1777557599 | 14.44° C | 55% | 1016.4 hPa | 0 mm | - | - | - |
| 1777556999 | 14.44° C | 56% | 1016.3 hPa | 0 mm | - | - | - |
| 1777556399 | 14.44° C | 57% | 1016.3 hPa | 0 mm | - | - | - |
| 1777555798 | 13.89° C | 61% | 1016.3 hPa | 0 mm | - | - | - |
| 1777555198 | 13.89° C | 62% | 1016.2 hPa | 0 mm | - | - | - |
| 1777554598 | 12.78° C | 68% | 1016.2 hPa | 0 mm | - | - | - |
| 1777553998 | 12.78° C | 69% | 1016.2 hPa | 0 mm | - | - | - |
| 1777553397 | 12.22° C | 72% | 1016.3 hPa | 0 mm | - | - | - |
| 1777552797 | 11.67° C | 76% | 1016.3 hPa | 0 mm | - | - | - |
| 1777552197 | 11.11° C | 77% | 1016.2 hPa | 0 mm | - | - | - |
| 1777551626 | 11.11° C | 80% | 1016 hPa | 0 mm | - | - | - |
| 1777550996 | 10° C | 83% | 1015.8 hPa | 0 mm | - | - | - |
| 1777550396 | 9.44° C | 86% | 1015.5 hPa | 0 mm | - | - | - |
| 1777549795 | 9.44° C | 87% | 1015.5 hPa | 0 mm | - | - | - |
| 1777549225 | 8.89° C | 85% | 1015.4 hPa | 0 mm | - | - | - |
| 1777548595 | 9.44° C | 84% | 1015.1 hPa | 0 mm | - | - | - |
* Rain latest hour (hover to see other rain measurements)
** Current wind speed in m/s (hover to see current wind gust speed)